TimeEET,TemperatureF,Dew PointF,Humidity,Sea Level PressureIn,VisibilityMPH,Wind Direction,Wind SpeedMPH,Gust SpeedMPH,PrecipitationIn,Events,Conditions,WindDirDegrees,DateUTC
12:00 AM,48.2,44.6,87,30.04,6.2,Calm,Calm,-,N/A,,Partly Cloudy,0,2012-11-13 22:00:00
1:00 AM,48.2,46.4,93,30.04,-9999.0,Calm,Calm,-,N/A,,Clear,0,2012-11-13 23:00:00
2:00 AM,47,45,89,30.01,9,Calm,Calm,,,,,,2012-11-14 00:00:00
2:00 AM,-9999,-9999,N/A,30.04,-9999.0,Calm,Calm,-,N/A,,Clear,0,2012-11-14 00:00:00
2:10 AM,-9999,-9999,N/A,30.04,5.0,Calm,Calm,-,N/A,,Unknown,0,2012-11-14 00:10:00
3:00 AM,-9999,-9999,N/A,30.04,4.3,Calm,Calm,-,N/A,,Unknown,0,2012-11-14 01:00:00
4:00 AM,-9999,-9999,N/A,30.04,1.9,Calm,Calm,-,N/A,,Mist,0,2012-11-14 02:00:00
4:02 AM,-9999,-9999,N/A,30.04,0.5,Calm,Calm,-,N/A,Fog,Fog,0,2012-11-14 02:02:00
4:11 AM,-9999,-9999,N/A,30.04,0.2,Calm,Calm,-,N/A,Fog,Fog,0,2012-11-14 02:11:00
4:30 AM,-9999,-9999,N/A,30.04,0.1,Calm,Calm,-,N/A,Fog,Fog,0,2012-11-14 02:30:00
5:00 AM,41.0,39.2,93,30.04,0.1,Calm,Calm,-,N/A,Fog,Fog,0,2012-11-14 03:00:00
6:00 AM,42.8,41.0,93,30.06,0.1,Calm,Calm,-,N/A,Fog,Fog,0,2012-11-14 04:00:00
7:00 AM,46.4,44.6,93,30.06,0.1,Calm,Calm,-,N/A,Fog,Fog,0,2012-11-14 05:00:00
8:00 AM,49,48,96,29.85,0,Calm,Calm,,,Fog,Heavy Fog,,2012-11-14 06:00:00
8:00 AM,48.2,48.2,100,30.09,0.1,Calm,Calm,-,N/A,Fog,Fog,0,2012-11-14 06:00:00
9:00 AM,50.0,50.0,100,30.09,0.1,Calm,Calm,-,N/A,Fog,Fog,0,2012-11-14 07:00:00
10:00 AM,53.6,51.8,94,30.09,0.9,Calm,Calm,-,N/A,,Mist,0,2012-11-14 08:00:00
11:00 AM,60.8,51.8,72,30.06,3.1,Calm,Calm,-,N/A,,Unknown,0,2012-11-14 09:00:00
12:00 PM,66.2,48.2,52,30.06,5.0,Calm,Calm,-,N/A,,Unknown,0,2012-11-14 10:00:00
1:00 PM,68.0,46.4,46,30.06,-9999.0,Calm,Calm,-,N/A,,Clear,0,2012-11-14 11:00:00
2:00 PM,71,45,29,30.00,9,Calm,Calm,,,,,,2012-11-14 12:00:00
2:00 PM,71.6,44.6,38,30.04,-9999.0,Calm,Calm,-,N/A,,Clear,0,2012-11-14 12:00:00
3:00 PM,69.8,42.8,38,30.04,-9999.0,Calm,Calm,-,N/A,,Clear,0,2012-11-14 13:00:00
4:00 PM,68.0,46.4,46,30.04,-9999.0,Calm,Calm,-,N/A,,Clear,0,2012-11-14 14:00:00
5:00 PM,62.6,44.6,52,30.06,-9999.0,Calm,Calm,-,N/A,,Clear,0,2012-11-14 15:00:00
6:00 PM,59.0,46.4,63,30.06,-9999.0,Calm,Calm,-,N/A,,Clear,0,2012-11-14 16:00:00
7:00 PM,57.2,44.6,63,30.09,-9999.0,Calm,Calm,-,N/A,,Clear,0,2012-11-14 17:00:00
8:00 PM,53,47,73,30.07,9,Calm,Calm,,,,,,2012-11-14 18:00:00
8:00 PM,53.6,46.4,77,30.09,-9999.0,Calm,Calm,-,N/A,,Clear,0,2012-11-14 18:00:00
9:00 PM,53.6,46.4,77,30.09,-9999.0,Calm,Calm,-,N/A,,Clear,0,2012-11-14 19:00:00
10:00 PM,50.0,44.6,82,30.09,-9999.0,Calm,Calm,-,N/A,,Clear,0,2012-11-14 20:00:00
11:00 PM,48.2,41.0,76,30.12,-9999.0,Calm,Calm,-,N/A,,Clear,0,2012-11-14 21:00:00